Location: ?????
(55.8833°N, 37.6500°E)
Time: 09:43:19
(UTC+00:00)

Cosmos 2297 Rocket - Pass Details

Date: 27 February 2020
Orbit: 838 x 844 km, 71.0° (Epoch: 03 April)

Event Time Altitude Azimuth Distance (km) Brightness Sun altitude
Rises 17:54:40 0° 324° (NW) 3,417 6.3 -25.0°
Reaches altitude 10° 17:57:12 10° 318° (NW) 2,478 5.5 -25.4°
Maximum altitude 18:02:36 47° 247° (WSW) 1,117 3.0 -26.1°
Enters shadow 18:04:52 31° 195° (SSW) 1,451 3.3 -26.3°
